Total_Precipitation_Accumulation
0.56 0.56 0.59 0.61 0.64 0.70 0.75 0.83 0.90 0.93 0.83 0.67 0.60 0.54 0.46 0.48 0.62 0.54 0.45 0.37 0.28 0.21 0.18 0.17 0.17 0.17 0.17 0.16 0.16 0.16 0.18 0.21 0.33 0.47 0.61 0.75 0.84 0.92
0.51 0.49 0.49 0.51 0.53 0.55 0.61 0.64 0.68 0.76 0.76 0.60 0.49 0.45 0.43 0.44 0.56 0.51 0.51 0.46 0.33 0.23 0.18 0.15 0.13 0.13 0.14 0.14 0.14 0.15 0.18 0.21 0.29 0.38 0.52 0.67 0.78 0.92
0.43 0.44 0.43 0.43 0.45 0.45 0.48 0.52 0.56 0.62 0.72 0.65 0.50 0.43 0.42 0.44 0.47 0.44 0.42 0.39 0.34 0.30 0.22 0.18 0.15 0.13 0.13 0.14 0.15 0.19 0.22 0.27 0.32 0.39 0.52 0.67 0.77 0.83
0.35 0.35 0.35 0.37 0.39 0.39 0.41 0.45 0.52 0.59 0.69 0.68 0.53 0.41 0.37 0.36 0.37 0.37 0.31 0.28 0.30 0.32 0.25 0.18 0.15 0.14 0.18 0.16 0.13 0.16 0.22 0.31 0.39 0.45 0.55 0.65 0.72 0.76
0.30 0.32 0.34 0.36 0.36 0.36 0.38 0.42 0.49 0.56 0.66 0.67 0.55 0.43 0.37 0.38 0.46 0.43 0.36 0.43 0.35 0.29 0.24 0.18 0.16 0.17 0.40 0.46 0.22 0.18 0.21 0.33 0.40 0.46 0.57 0.63 0.63 0.61
0.23 0.27 0.32 0.35 0.36 0.39 0.40 0.44 0.49 0.55 0.58 0.62 0.53 0.43 0.42 0.43 0.54 0.60 0.55 0.50 0.43 0.26 0.28 0.24 0.23 0.28 0.65 1.20 0.67 0.35 0.29 0.33 0.39 0.44 0.49 0.49 0.46 0.42
0.19 0.22 0.24 0.27 0.32 0.33 0.34 0.40 0.49 0.56 0.59 0.62 0.56 0.49 0.46 0.55 0.62 0.62 0.59 0.55 0.45 0.35 0.40 0.35 0.50 0.84 1.37 2.00 1.54 0.88 0.63 0.52 0.45 0.45 0.46 0.45 0.40 0.32
0.21 0.21 0.17 0.16 0.17 0.17 0.21 0.28 0.39 0.50 0.60 0.66 0.64 0.62 0.56 0.60 0.68 0.68 0.69 0.66 0.56 0.39 0.42 0.43 0.71 1.47 2.17 2.55 2.11 1.31 0.98 0.77 0.63 0.64 0.65 0.56 0.43 0.32
0.25 0.23 0.18 0.14 0.18 0.23 0.22 0.22 0.31 0.38 0.52 0.69 0.75 0.68 0.65 0.67 0.77 0.81 0.77 0.76 0.73 0.53 0.54 0.58 0.88 1.74 2.08 2.30 2.11 1.44 1.14 0.96 0.85 0.88 0.85 0.64 0.44 0.32
0.18 0.21 0.25 0.27 0.20 0.17 0.19 0.29 0.40 0.48 0.52 0.58 0.69 0.66 0.62 0.64 0.71 0.75 0.73 0.74 0.67 0.59 0.61 0.75 1.01 1.63 1.74 1.88 1.94 1.50 1.23 1.10 1.03 1.00 0.92 0.68 0.47 0.37
0.12 0.13 0.16 0.21 0.16 0.15 0.26 0.43 0.51 0.62 0.64 0.75 0.75 0.69 0.69 0.69 0.61 0.60 0.77 0.88 0.82 0.62 0.57 0.74 0.98 1.31 1.43 1.57 1.58 1.46 1.34 1.25 1.15 1.08 0.96 0.70 0.52 0.44
0.16 0.19 0.15 0.12 0.13 0.17 0.30 0.51 0.66 0.72 0.86 1.04 1.00 0.93 0.86 0.82 0.69 0.66 0.87 1.02 1.00 0.83 0.64 0.70 0.88 1.04 1.28 1.35 1.28 1.24 1.32 1.37 1.29 1.25 1.08 0.78 0.52 0.44
0.20 0.25 0.25 0.17 0.17 0.19 0.31 0.53 0.70 0.72 0.93 1.20 1.10 0.93 0.85 0.79 0.76 0.78 0.85 0.91 0.90 0.86 0.66 0.71 0.89 1.01 1.13 1.22 1.20 1.22 1.22 1.29 1.33 1.39 1.29 0.99 0.65 0.46
0.30 0.30 0.29 0.26 0.23 0.28 0.41 0.60 0.74 0.89 1.06 1.16 0.99 0.81 0.69 0.67 0.67 0.62 0.61 0.63 0.67 0.69 0.63 0.70 0.92 1.09 1.09 1.03 1.15 1.18 1.21 1.27 1.33 1.40 1.40 1.18 0.89 0.68
0.30 0.34 0.33 0.30 0.38 0.56 0.68 0.79 0.92 1.08 1.12 1.00 0.86 0.75 0.62 0.56 0.52 0.51 0.50 0.53 0.56 0.50 0.45 0.51 0.73 0.93 1.00 0.97 1.06 1.09 1.19 1.41 1.45 1.45 1.41 1.26 1.05 0.82
0.26 0.39 0.47 0.50 0.64 0.84 0.98 1.07 1.14 1.15 1.01 0.90 0.79 0.68 0.56 0.51 0.49 0.45 0.47 0.49 0.53 0.53 0.46 0.46 0.59 0.76 0.88 0.87 0.96 1.08 1.16 1.54 1.67 1.50 1.43 1.40 1.20 0.97
0.26 0.41 0.57 0.63 0.76 0.92 1.03 1.08 1.10 1.09 1.00 0.87 0.76 0.66 0.57 0.52 0.49 0.42 0.41 0.43 0.46 0.49 0.49 0.51 0.57 0.63 0.68 0.74 0.90 1.06 1.19 1.44 1.57 1.39 1.25 1.36 1.31 1.09
0.31 0.52 0.64 0.66 0.74 0.84 0.93 1.00 0.99 0.95 0.87 0.82 0.77 0.71 0.62 0.53 0.50 0.45 0.41 0.41 0.45 0.45 0.47 0.45 0.44 0.42 0.48 0.62 0.87 0.98 1.04 1.24 1.30 1.16 0.97 1.04 1.21 1.08
0.38 0.58 0.68 0.74 0.79 0.82 0.83 0.86 0.90 0.90 0.82 0.75 0.71 0.65 0.56 0.49 0.46 0.43 0.39 0.37 0.38 0.38 0.36 0.30 0.27 0.25 0.32 0.64 0.94 1.03 0.97 0.98 0.95 0.92 0.84 0.80 0.95 0.95
0.42 0.57 0.67 0.73 0.77 0.79 0.77 0.73 0.77 0.79 0.72 0.64 0.59 0.54 0.49 0.46 0.41 0.39 0.35 0.28 0.27 0.27 0.26 0.23 0.22 0.23 0.28 0.50 0.92 1.14 0.96 0.72 0.64 0.68 0.69 0.69 0.81 0.87
0.38 0.51 0.60 0.65 0.66 0.67 0.67 0.65 0.66 0.67 0.63 0.57 0.53 0.49 0.45 0.41 0.37 0.30 0.26 0.18 0.21 0.22 0.23 0.27 0.28 0.22 0.19 0.25 0.54 0.86 0.91 0.81 0.60 0.51 0.50 0.53 0.56 0.54
0.34 0.45 0.54 0.56 0.55 0.51 0.49 0.49 0.50 0.50 0.50 0.48 0.47 0.45 0.41 0.36 0.29 0.24 0.21 0.21 0.22 0.20 0.20 0.22 0.21 0.18 0.18 0.23 0.41 0.61 0.68 0.61 0.54 0.53 0.49 0.38 0.32 0.40
0.32 0.36 0.42 0.45 0.44 0.40 0.36 0.34 0.34 0.37 0.38 0.38 0.39 0.38 0.33 0.29 0.23 0.18 0.16 0.13 0.13 0.14 0.13 0.16 0.16 0.15 0.15 0.17 0.23 0.31 0.35 0.32 0.28 0.31 0.45 0.48 0.41 0.47